[[{"header":{"parameterUnit":"m.s-1","parameterCategory":1,"la1":30.2991,"la2":30.254,"lo1":-89.0895,"lo2":-89.0444,"dy":0.0017,"dx":0.0017,"nx":28,"ny":28,"refTime":"2025-06-21T21:00:00:Z","depth":0,"parameterNumber":2,"parameterNumberName":"U-component_of_WINDS"},"data":[0,0,0,0,0,0,0,0,0,0,0,0,0,0,0,0,0,0,0,0,0,0,0,0,0,0,0,0,0,0,0,0,0,0,0,0,0,0,0,0,0,0,0,0,0,0,0,0,0,0,0,0,0,0,0,0,0,0,-0.1441,-0.1441,0,-0.142,-0.142,-0.142,-0.1392,-0.1392,-0.1391,-0.1391,-0.1371,-0.1371,-0.1371,0,0,0,0,0,0,0,0,0,0,0,0,0,-0.1459,-0.1458,-0.1441,-0.144,-0.144,-0.142,-0.142,-0.142,-0.1392,-0.1392,-0.1391,-0.1391,-0.1372,-0.1371,-0.1371,0,0,0,0,0,0,0,0,0,0,0,0,0,-0.1446,-0.1458,-0.1441,-0.1424,-0.1423,-0.142,-0.142,-0.142,-0.1393,-0.1392,-0.1391,-0.1391,-0.1372,-0.1371,-0.1371,-0.1384,0,0,-0.1371,-0.1371,0,0,0,0,0,0,0,0,-0.1447,-0.1445,-0.1427,-0.1425,-0.1423,-0.1408,-0.1419,-0.1408,-0.1393,-0.1404,-0.1391,-0.139,-0.1384,-0.1383,-0.1381,-0.1383,-0.1382,-0.1371,-0.1371,-0.1371,-0.1371,0,0,0,0,0,0,0,-0.1448,-0.1446,-0.1433,-0.1427,-0.1425,-0.1419,-0.1416,-0.1417,-0.1398,-0.1403,-0.1401,-0.1399,-0.1383,-0.1381,-0.138,-0.1382,-0.1371,-0.1371,-0.1371,-0.1371,-0.1395,-0.1396,0,0,0,0,0,0,-0.1451,-0.1447,-0.1433,-0.1432,-0.1434,-0.1419,-0.1416,-0.1414,-0.1398,-0.1395,-0.1399,-0.1398,-0.1382,-0.138,-0.1379,-0.1394,-0.1371,-0.1371,-0.137,-0.1395,-0.1395,-0.1396,0,0,0,0,0,0,-0.1451,-0.145,-0.1434,-0.1439,-0.1436,-0.1419,-0.1417,-0.1414,-0.1411,-0.1395,-0.1392,-0.14,-0.1381,-0.138,-0.1383,-0.1393,-0.137,-0.137,-0.1394,-0.1395,-0.1396,-0.1424,0,0,0,0,0,0,-0.1452,-0.145,-0.1454,-0.1439,-0.1436,-0.1438,-0.1418,-0.1414,-0.1411,-0.1408,-0.1395,-0.1393,-0.138,-0.1384,-0.1383,-0.1393,-0.137,-0.1393,-0.1394,-0.1395,-0.1422,-0.1426,-0.1429,0,0,0,0,0,-0.1452,-0.1463,-0.1454,-0.1453,-0.1441,-0.1438,-0.1437,-0.1422,-0.1412,-0.1416,-0.1406,-0.1393,-0.1392,-0.1384,-0.1383,-0.1393,-0.1392,-0.1394,-0.1395,-0.142,-0.1425,-0.1429,0,0,0,0,0,0,-0.148,-0.146,-0.1451,-0.1457,-0.1449,-0.1434,-0.1439,-0.1427,-0.1423,-0.1421,-0.1403,-0.14,-0.1407,-0.14,-0.1392,-0.1405,-0.139,-0.1392,-0.1409,-0.1414,-0.1417,-0.1419,-0.137,0,0,0,0,0,-0.1486,-0.1485,-0.1469,-0.1475,-0.1472,-0.1456,-0.1455,-0.1444,-0.1436,-0.1433,-0.1423,-0.1416,-0.1414,-0.1413,-0.1411,-0.1421,-0.1418,-0.1427,-0.143,-0.1433,-0.1435,-0.1441,-0.1445,-0.1402,-0.1402,-0.1402,0,0,-0.15,-0.1489,-0.149,-0.1481,-0.1474,-0.1474,-0.1454,-0.1455,-0.1455,-0.1433,-0.1436,-0.1429,-0.142,-0.1427,-0.143,-0.1422,-0.1447,-0.1435,-0.1438,-0.1438,-0.1443,-0.1448,-0.1451,-0.1403,-0.1403,-0.1402,0,0,-0.1525,-0.1517,-0.1522,-0.1515,-0.1505,-0.1495,-0.1496,-0.1482,-0.1477,-0.1479,-0.1463,-0.1463,-0.146,-0.1455,-0.1452,-0.1477,-0.1465,-0.1476,-0.1495,-0.1501,-0.1505,-0.1508,-0.1517,-0.1521,-0.1478,-0.1478,-0.1478,0,-0.1544,-0.1543,-0.1526,-0.1528,-0.1525,-0.1505,-0.1511,-0.1505,-0.1495,-0.1494,-0.1485,-0.1481,-0.1474,-0.148,-0.1486,-0.1484,-0.1486,-0.1478,-0.1505,-0.1508,-0.1511,-0.152,-0.1524,-0.148,-0.1479,-0.1479,-0.1479,0,-0.1567,-0.1566,-0.1572,-0.1562,-0.156,-0.1564,-0.1549,-0.1548,-0.1538,-0.1529,-0.1532,-0.1523,-0.1518,-0.1519,-0.1509,-0.1524,-0.152,-0.1508,-0.1493,-0.1517,-0.1525,-0.1528,-0.1482,-0.1481,-0.1481,-0.148,0,0,-0.1609,-0.159,-0.1593,-0.1588,-0.1576,-0.1576,-0.1579,-0.1575,-0.1575,-0.1569,-0.1572,-0.1571,-0.156,-0.1557,-0.1546,-0.1551,-0.1573,-0.1539,-0.1539,-0.1547,-0.1591,-0.16,-0.1604,-0.1565,-0.1565,-0.1566,-0.1592,0,-0.1632,-0.1637,-0.1622,-0.1631,-0.1631,-0.1612,-0.1616,-0.1609,-0.16,-0.16,-0.1591,-0.159,-0.1576,-0.1574,-0.1578,-0.1569,-0.1582,-0.1567,-0.1568,-0.1569,-0.1572,-0.1609,-0.1618,-0.1644,-0.1595,-0.1595,-0.1596,0,-0.166,-0.1656,-0.1664,-0.1653,-0.1652,-0.1655,-0.1651,-0.165,-0.1642,-0.1636,-0.1633,-0.162,-0.1624,-0.1609,-0.1614,-0.1604,-0.1604,-0.16,-0.1601,-0.1601,-0.1584,-0.1611,-0.1651,-0.1656,-0.1601,-0.16,-0.16,0,-0.1692,-0.1687,-0.1692,-0.1689,-0.1675,-0.1678,-0.1672,-0.1664,-0.1663,-0.1659,-0.1658,-0.1654,-0.1653,-0.1651,-0.1638,-0.1628,-0.1646,-0.1629,-0.1642,-0.1642,-0.1647,-0.1647,-0.1689,-0.1645,-0.1645,-0.1645,-0.1645,0,-0.172,-0.1727,-0.1706,-0.1709,-0.1716,-0.17,-0.1708,-0.17,-0.1693,-0.1695,-0.1678,-0.1681,-0.1663,-0.1664,-0.1654,-0.1661,-0.166,-0.1656,-0.1653,-0.1658,-0.1659,-0.1658,-0.1657,-0.1646,-0.1646,-0.1645,-0.1645,0,-0.1757,-0.1743,-0.1747,-0.1734,-0.1731,-0.1736,-0.1725,-0.1728,-0.1719,-0.1722,-0.1721,-0.1707,-0.1707,-0.1694,-0.1692,-0.1685,-0.1697,-0.169,-0.1699,-0.1698,-0.1711,-0.1711,-0.1755,-0.1761,-0.1713,-0.1713,-0.1713,0,-0.1776,-0.1781,-0.1768,-0.1768,-0.1763,-0.1763,-0.1762,-0.1746,-0.1745,-0.1738,-0.1742,-0.174,-0.1739,-0.174,-0.173,-0.1728,-0.1723,-0.1738,-0.1722,-0.1727,-0.1724,-0.1725,-0.1726,-0.1742,-0.1743,-0.1743,-0.1743,0,-0.1813,-0.1806,-0.1804,-0.1801,-0.18,-0.1796,-0.1791,-0.1793,-0.1776,-0.1776,-0.1776,-0.1774,-0.1772,-0.1772,-0.1768,-0.1763,-0.1751,-0.1748,-0.1751,-0.1757,-0.1762,-0.1761,-0.171,-0.1748,-0.1747,-0.1747,-0.1747,-0.1747,-0.1842,-0.1846,-0.1837,-0.1837,-0.1831,-0.1828,-0.183,-0.1821,-0.1821,-0.1817,-0.1808,-0.181,-0.1803,-0.1797,-0.1794,-0.1795,-0.1788,-0.1792,-0.1793,-0.1795,-0.1798,-0.1761,-0.1795,-0.1794,-0.1794,-0.1794,-0.1794,0,-0.1879,-0.1873,-0.1872,-0.1866,-0.1866,-0.1854,-0.1849,-0.1849,-0.1851,-0.1845,-0.1844,-0.1845,-0.1844,-0.1834,-0.1833,-0.1836,-0.1831,-0.1837,-0.1837,-0.1836,-0.1804,-0.1802,-0.1841,-0.1841,-0.1841,-0.1841,-0.1841,-0.1841,-0.1898,-0.1904,-0.1897,-0.19,-0.1894,-0.1896,-0.1894,-0.1891,-0.1886,-0.1888,-0.1887,-0.188,-0.1874,-0.1872,-0.1871,-0.1868,-0.1869,-0.1877,-0.1873,-0.1843,-0.1838,-0.1834,-0.1832,-0.1877,-0.1877,-0.1905,-0.1905,-0.1905]},{"header":{"parameterUnit":"m.s-1","parameterCategory":1,"la1":30.2991,"la2":30.254,"lo1":-89.0895,"lo2":-89.0444,"dy":0.0017,"dx":0.0017,"nx":28,"ny":28,"refTime":"2025-06-21T21:00:00:Z","depth":0,"parameterNumber":3,"parameterNumberName":"V-component_of_WINDS"},"data":[0,0,0,0,0,0,0,0,0,0,0,0,0,0,0,0,0,0,0,0,0,0,0,0,0,0,0,0,0,0,0,0,0,0,0,0,0,0,0,0,0,0,0,0,0,0,0,0,0,0,0,0,0,0,0,0,0,0,1.6171,1.6171,0,1.619,1.619,1.6191,1.6173,1.6172,1.6171,1.617,1.6188,1.619,1.6191,0,0,0,0,0,0,0,0,0,0,0,0,0,1.6115,1.6117,1.6171,1.6171,1.6171,1.619,1.6191,1.6191,1.6173,1.6172,1.6171,1.617,1.6188,1.6189,1.6191,0,0,0,0,0,0,0,0,0,0,0,0,0,1.6138,1.6117,1.6171,1.6165,1.6164,1.619,1.6191,1.6191,1.6173,1.6172,1.6171,1.617,1.6188,1.6189,1.6191,1.6223,0,0,1.6196,1.6197,0,0,0,0,0,0,0,0,1.6136,1.614,1.6165,1.6165,1.6165,1.6178,1.6178,1.6202,1.6173,1.617,1.617,1.6169,1.6186,1.6188,1.6193,1.6224,1.6225,1.6196,1.6198,1.6198,1.6199,0,0,0,0,0,0,0,1.6135,1.6139,1.6178,1.6166,1.6165,1.616,1.6162,1.6182,1.6183,1.617,1.6169,1.6171,1.6185,1.6192,1.6194,1.6225,1.6196,1.6198,1.6199,1.62,1.6283,1.6284,0,0,0,0,0,0,1.6134,1.6138,1.6178,1.6179,1.6148,1.6162,1.6164,1.6175,1.6183,1.6183,1.6172,1.617,1.6189,1.6192,1.6194,1.6232,1.6198,1.62,1.6201,1.6281,1.6283,1.6284,0,0,0,0,0,0,1.6133,1.6138,1.6177,1.6158,1.6163,1.6164,1.6176,1.6176,1.6182,1.6185,1.6185,1.6179,1.6189,1.6192,1.6216,1.6232,1.6201,1.6202,1.628,1.6282,1.6283,1.6308,0,0,0,0,0,0,1.6132,1.6138,1.6151,1.6158,1.6164,1.6199,1.6177,1.6177,1.6186,1.6183,1.6191,1.6191,1.6188,1.6214,1.6218,1.6234,1.6204,1.6279,1.6281,1.6283,1.6306,1.6311,1.6315,0,0,0,0,0,1.613,1.6157,1.6152,1.6156,1.618,1.62,1.6203,1.62,1.6187,1.6199,1.6201,1.6191,1.623,1.6216,1.6221,1.6238,1.6277,1.628,1.6283,1.6304,1.631,1.6315,0,0,0,0,0,0,1.615,1.6158,1.6152,1.6182,1.6191,1.6197,1.6213,1.6206,1.6218,1.6215,1.6209,1.6211,1.6237,1.624,1.6224,1.6269,1.6252,1.6255,1.6266,1.6272,1.6276,1.6274,1.6205,0,0,0,0,0,1.6159,1.6175,1.618,1.6207,1.6211,1.6212,1.622,1.6217,1.6225,1.6228,1.6232,1.624,1.6254,1.6263,1.6276,1.6307,1.6307,1.632,1.6325,1.6328,1.6331,1.6347,1.6352,1.6293,1.6293,1.6293,0,0,1.6175,1.6181,1.6192,1.6211,1.6217,1.6234,1.6215,1.6233,1.6245,1.6231,1.6254,1.6257,1.6265,1.6293,1.6305,1.6296,1.6348,1.6332,1.6334,1.6335,1.635,1.6356,1.6361,1.6294,1.6294,1.6294,0,0,1.6214,1.6221,1.6243,1.625,1.626,1.626,1.6265,1.6273,1.6274,1.6297,1.6287,1.63,1.6325,1.6331,1.6337,1.6378,1.6369,1.6383,1.6405,1.642,1.6425,1.6429,1.6443,1.6448,1.6386,1.6386,1.6386,0,1.6234,1.6259,1.6256,1.6275,1.6283,1.6271,1.6293,1.63,1.6313,1.6318,1.6309,1.6339,1.6344,1.6372,1.6382,1.6388,1.6393,1.6382,1.6425,1.6429,1.6432,1.6445,1.6451,1.6387,1.6387,1.6387,1.6387,0,1.6282,1.63,1.6316,1.633,1.634,1.636,1.6359,1.6369,1.6365,1.6365,1.6389,1.6394,1.6408,1.6414,1.641,1.6442,1.6436,1.6426,1.6407,1.644,1.6452,1.6457,1.639,1.6389,1.6389,1.6388,0,0,1.6335,1.6346,1.6352,1.6358,1.6367,1.638,1.64,1.6414,1.6422,1.6432,1.6447,1.6468,1.6458,1.6466,1.6462,1.6475,1.6506,1.6463,1.6463,1.647,1.654,1.6547,1.6553,1.65,1.6501,1.6502,1.6539,0,1.6373,1.6408,1.6405,1.6437,1.6453,1.6442,1.6459,1.6466,1.6467,1.648,1.648,1.6495,1.6482,1.6486,1.6498,1.65,1.652,1.6497,1.6514,1.6514,1.6511,1.656,1.6567,1.6602,1.6544,1.6545,1.6545,0,1.6423,1.6435,1.6469,1.6475,1.6482,1.6497,1.6509,1.6522,1.6529,1.6529,1.6537,1.6531,1.6549,1.6532,1.6557,1.6541,1.6548,1.6549,1.655,1.6551,1.6531,1.6561,1.6613,1.6618,1.6553,1.6552,1.6552,0,1.6457,1.6481,1.6504,1.6509,1.6518,1.6529,1.6533,1.654,1.6548,1.6558,1.6563,1.6575,1.6582,1.6591,1.6588,1.6575,1.6613,1.6595,1.6613,1.6613,1.6621,1.662,1.6674,1.6626,1.6626,1.6626,1.6626,0,1.65,1.6521,1.6519,1.6534,1.6556,1.6552,1.6575,1.6577,1.6583,1.6597,1.6588,1.6601,1.6597,1.6609,1.6607,1.6628,1.6631,1.663,1.6629,1.6631,1.6631,1.6634,1.6632,1.6628,1.6627,1.6627,1.6627,0,1.6542,1.6542,1.6566,1.6572,1.6574,1.659,1.6595,1.6608,1.6608,1.6626,1.663,1.663,1.6644,1.6642,1.6658,1.6656,1.6682,1.6678,1.6679,1.6678,1.6695,1.6693,1.6753,1.676,1.6708,1.6709,1.6709,0,1.6569,1.6585,1.6593,1.6601,1.6606,1.6621,1.6629,1.6625,1.6634,1.6644,1.6655,1.6669,1.6679,1.6702,1.6704,1.6715,1.6712,1.6732,1.6713,1.6714,1.6711,1.671,1.6711,1.6735,1.6736,1.6736,1.6736,0,1.6617,1.6616,1.6629,1.6641,1.6651,1.6661,1.6669,1.6677,1.6674,1.6684,1.6699,1.6707,1.6723,1.6736,1.6747,1.6751,1.6743,1.6742,1.6747,1.6748,1.6747,1.6747,1.6688,1.6741,1.674,1.674,1.674,1.674,1.6652,1.6665,1.6672,1.6686,1.6692,1.67,1.6713,1.6714,1.6727,1.674,1.6737,1.6753,1.6759,1.6773,1.6778,1.679,1.6782,1.6789,1.6791,1.6792,1.6794,1.6746,1.6792,1.6792,1.6792,1.6792,1.6792,0,1.6698,1.6703,1.6716,1.6728,1.6739,1.6731,1.674,1.6749,1.6764,1.6771,1.6781,1.6798,1.681,1.6812,1.6824,1.6833,1.683,1.6836,1.6835,1.6836,1.68,1.6795,1.6839,1.6839,1.6839,1.6839,1.6839,1.6839,1.6724,1.6746,1.6745,1.677,1.6773,1.679,1.6795,1.6802,1.6808,1.6826,1.6837,1.6838,1.6843,1.6855,1.6866,1.6866,1.687,1.6878,1.6877,1.6843,1.6839,1.6834,1.6829,1.6879,1.6879,1.6911,1.6912,1.6912]}]]